Zurück zum Katalog

STARLINK-33997

AktivKommunikationVLEO
NORAD 63928·PAYLOAD·🇺🇸 United States

Gestartet May 13, 2025 von Vandenberg Space Force Base

Loading…

Nächste Überflüge (nächste 24 Stunden)

TLE

AktuellSource: CelesTrak SupGP

Epoche: Sep 15, 2026, 02:09 UTC

1 63928C 25098C   26258.09006944  .00106420  00000+0  36120-2 0  2581
2 63928  70.0003 155.3497 0003171 275.5892  24.4617 15.30324032    12

Verfolge STARLINK-33997 in Echtzeit mit AllMySat

Download on the App Store